Regional Weather Roundup
Issued by NWS

Home | Current Version | Previous Version | Text Only | Print | Product List | Glossary Off
Versions: 1 2 3 4 5 6 7 8 9 10 11 12 13 14 15 16 17 18 19 20 21 22 23 24 25 26 27 28 29 30 31 32 33 34 35 36 37 38 39 40 41 42 43 44 45 46 47 48 49 50

000
ASUS43 KLMK 211902
RWRKY
KENTUCKY REGIONAL WEATHER ROUNDUP
NATIONAL WEATHER SERVICE LOUISVILLE KY
300 PM EDT MON AUG 21 2017

NOTE "FAIR" INDICATES FEW OR NO CLOUDS BELOW 12,000 FEET
WITH NO SIGNIFICANT WEATHER AND/OR OBSTRUCTIONS TO VISIBILITY.

KYZ001>023-026-027-061>063-070>075-212000-
WESTERN AND SOUTH CENTRAL KENTUCKY

CITY           SKY/WX    TMP DP  RH WIND       PRES   REMARKS
PADUCAH        MOSUNNY   88  75  65 VRB5      30.09F HX  97
HENDERSON      MOSUNNY   85  76  74 SE3       30.09F HX  94
OWENSBORO      SUNNY     86  71  60 S7        30.11F HX  91
HOPKINSVILLE   SUNNY     86  71  61 SW3       30.12F HX  92
BOWLING GREEN  SUNNY     87  68  52 W6        30.13F HX  90
GLASGOW        SUNNY     82  71  67 CALM      30.15F
$$

KYZ024-025-028>034-038-045-046-053-212000-
NORTH CENTRAL KENTUCKY

CITY           SKY/WX    TMP DP  RH WIND       PRES   REMARKS
LOUISVILLE/SDF MOSUNNY   89  69  51 W7        30.11F HX  93
LOUISVILLE/LOU SUNNY     87  72  60 CALM      30.12F HX  93
FORT KNOX      SUNNY     85  68  57 S5        30.12F
$$

KYZ035>037-039>044-047>052-055>060-089>105-212000-
NORTHEAST KENTUCKY

CITY           SKY/WX    TMP DP  RH WIND       PRES   REMARKS
LEXINGTON      MOSUNNY   84  69  60 SW3       30.16F
COVINGTON      MOSUNNY   84  72  67 S5        30.14F
FRANKFORT      MOSUNNY   84  69  60 SW3       30.13F
$$

KYZ054-064>069-076>088-106>120-212000-
SOUTHEAST KENTUCKY

CITY           SKY/WX    TMP DP  RH WIND       PRES   REMARKS
JACKSON        SUNNY     81  69  67 CALM      30.21F
LONDON         MOSUNNY   84  68  58 CALM      30.19F
SOMERSET       NOT AVBL
MIDDLESBORO    CLOUDY    81  71  71 W3        30.21S
MONTICELLO     PTCLDY    79  75  87 VRB3      30.20S
$$





USA.gov is the U.S. government's official web portal to all federal, state and local government web resources and services.